Location: Unspecified
(0.0000°N, 0.0000°E)
Time: 06:58:51
(UTC+00:00)

Meteor 2-16 Rocket - Pass Details

Date: 20 February 2026
Orbit: 942 x 955 km, 82.6° (Epoch: 29 March)

Event Time Altitude Azimuth Distance (km) Brightness Sun altitude
Exits shadow 04:28:55 55° 321° (NW) 1,130 4.5 -25.7°
Maximum altitude 04:30:07 68° 267° (W) 1,018 4.3 -25.4°
Drops below altitude 10° 04:36:13 10° 184° (S) 2,682 6.9 -23.9°
Sets 04:38:44 0° 181° (S) 3,630 7.6 -23.3°
